Butler, GA

8:06 AM EST on December 06, 2019 (GMT -0500)
Butler

Weather History for K6A1 - October, 2019

Change the Weather History Date:

Tuesday, October 22, 2019

  Actual Average (KMCN) Record (KMCN)
Temperature  
Mean Temperature 66 °F -  
Max Temperature 75 °F 76 °F 89 °F (1984)
Min Temperature 57 °F 49 °F 33 °F (1987)
Cooling Degree Days 1    
Growing Degree Days 16 (Base 50)    
Moisture  
Dew Point 51 °F    
Average Humidity 60    
Maximum Humidity 93    
Minimum Humidity 23    
Precipitation  
Precipitation 0.00 in - - ()
Sea Level Pressure  
Sea Level Pressure 29.98 in    
Wind  
Wind Speed 7 mph ()    
Max Wind Speed 15 mph    
Max Gust Speed 26 mph    
Visibility 10.0 miles    
Events Rain    
Averages and records for this station are not official NWS values.
T = Trace of Precipitation, MM = Missing Value Source: Averaged Metar Reports

Daily Weather History Graph

Daily Weather History Graph

Search for Another Location

Airport or City:

Astronomy

Oct. 22, 2019 Rise Set
Actual Time 7:46 AM EDT 6:56 PM EDT
Civil Twilight 7:21 AM EDT 7:21 PM EDT
Nautical Twilight 6:52 AM EDT 7:50 PM EDT
Astronomical Twilight 6:23 AM EDT 8:18 PM EDT
Moon 1:22 AM EDT (10/22) 3:39 PM EDT (10/22)
Length of Visible Light 12h 00m
Length of Day
11h 10m
Last Quarter, 37% of the Moon is Illuminated
Oct 22
Last Quarter
Oct 27
New
Nov 4
First Quarter
Nov 12
Full
Nov 19
Last Quarter

Hourly Weather History & Observations

Time (EDT) Temp. Dew Point Humidity Pressure Visibility Wind Dir Wind Speed Gust Speed Precip Events Conditions
12:15 AM 71.8 °F 63.7 °F 76% 29.95 in 10.0 mi South 4.6 mph - N/A Rain Light Rain
12:35 AM 72.1 °F 64.8 °F 78% 29.92 in 10.0 mi SSE 12.7 mph - N/A Rain Light Rain
12:55 AM 71.6 °F 65.1 °F 80% 29.92 in 10.0 mi South 9.2 mph - N/A   Unknown
1:15 AM 71.2 °F 65.7 °F 82% 29.92 in 10.0 mi South 4.6 mph - N/A   Unknown
1:35 AM 70.9 °F 66.2 °F 85% 29.92 in 10.0 mi South 3.5 mph - N/A   Unknown
1:55 AM 70.5 °F 66.9 °F 88% 29.87 in 10.0 mi South 11.5 mph - N/A Rain Light Rain
2:15 AM 70.9 °F 67.1 °F 88% 29.92 in 10.0 mi WNW 4.6 mph - N/A   Unknown
2:35 AM 70.7 °F 67.1 °F 88% 29.90 in 10.0 mi Calm Calm - N/A   Unknown
2:55 AM 70.2 °F 67.1 °F 90% 29.89 in 10.0 mi Calm Calm - N/A   Unknown
3:15 AM 70.2 °F 67.5 °F 91% 29.89 in 10.0 mi Calm Calm - N/A   Unknown
3:35 AM 69.8 °F 67.5 °F 92% 29.90 in 10.0 mi West 4.6 mph - N/A   Unknown
3:55 AM 70.2 °F 68.0 °F 93% 29.91 in 10.0 mi West 4.6 mph - N/A   Unknown
4:15 AM 70.2 °F 67.6 °F 92% 29.90 in 10.0 mi West 5.8 mph - N/A   Unknown
4:35 AM 70.5 °F 68.0 °F 92% 29.89 in 10.0 mi WSW 4.6 mph - N/A   Unknown
4:55 AM 70.9 °F 68.0 °F 91% 29.89 in 10.0 mi WSW 5.8 mph - N/A   Unknown
5:15 AM 70.7 °F 68.0 °F 91% 29.88 in 10.0 mi SW 4.6 mph - N/A   Unknown
5:35 AM 70.9 °F 68.2 °F 91% 29.89 in 10.0 mi SW 5.8 mph - N/A   Unknown
5:55 AM 71.1 °F 68.4 °F 91% 29.90 in 10.0 mi SW 4.6 mph - N/A   Unknown
6:15 AM 71.1 °F 68.4 °F 91% 29.90 in 10.0 mi WSW 6.9 mph - N/A   Unknown
6:35 AM 71.2 °F 68.2 °F 90% 29.90 in 10.0 mi SW 8.1 mph - N/A   Unknown
6:55 AM 70.9 °F 68.0 °F 91% 29.90 in 10.0 mi SW 6.9 mph - N/A   Unknown
7:35 AM 71.2 °F 68.0 °F 89% 29.92 in 10.0 mi WSW 8.1 mph - N/A   Unknown
7:55 AM 71.1 °F 68.0 °F 90% 29.93 in 7.0 mi WSW 13.8 mph 20.7 mph N/A   Unknown
8:15 AM 71.2 °F 67.5 °F 88% 29.92 in 10.0 mi West 10.4 mph 16.1 mph N/A   Unknown
8:35 AM 66.2 °F 59.5 °F 79% 29.95 in 10.0 mi NW 15.0 mph 26.5 mph N/A   Unknown
8:55 AM 61.9 °F 56.3 °F 82% 29.97 in 10.0 mi NW 15.0 mph 24.2 mph N/A   Unknown
9:15 AM 61.2 °F 55.8 °F 82% 29.98 in 10.0 mi NNW 13.8 mph 19.6 mph N/A   Unknown
9:35 AM 61.7 °F 55.6 °F 80% 30.00 in 10.0 mi NNW 11.5 mph 17.3 mph N/A   Unknown
9:55 AM 61.7 °F 55.0 °F 79% 30.00 in 10.0 mi NNW 10.4 mph 16.1 mph N/A   Unknown
10:15 AM 62.1 °F 54.5 °F 76% 30.00 in 10.0 mi North 8.1 mph - N/A   Unknown
10:35 AM 62.6 °F 53.8 °F 73% 30.02 in 10.0 mi NNW 10.4 mph - N/A   Unknown
10:55 AM 63.3 °F 54.0 °F 71% 30.02 in 10.0 mi NW 9.2 mph - N/A   Unknown
11:15 AM 65.1 °F 54.3 °F 68% 30.02 in 10.0 mi NW 6.9 mph - N/A   Unknown
11:35 AM 65.8 °F 53.4 °F 64% 30.02 in 10.0 mi NW 9.2 mph - N/A   Unknown
11:55 AM 66.4 °F 53.6 °F 63% 30.02 in 10.0 mi WNW 6.9 mph - N/A   Unknown
12:15 PM 69.8 °F 52.7 °F 54% 30.01 in 10.0 mi NNW 9.2 mph - N/A   Unknown
12:35 PM 70.3 °F 49.6 °F 48% 30.00 in 10.0 mi NW 8.1 mph - N/A   Unknown
12:55 PM 72.5 °F 44.6 °F 37% 30.00 in 10.0 mi NW 6.9 mph 18.4 mph N/A   Unknown
1:15 PM 74.1 °F 41.4 °F 31% 29.99 in 10.0 mi NW 6.9 mph - N/A   Unknown
1:35 PM 74.8 °F 43.7 °F 33% 29.98 in 10.0 mi WNW 10.4 mph 17.3 mph N/A   Unknown
1:55 PM 75.0 °F 40.5 °F 29% 29.98 in 10.0 mi WNW 12.7 mph 17.3 mph N/A   Unknown
2:15 PM 75.2 °F 41.5 °F 30% 29.97 in 10.0 mi NW 9.2 mph 19.6 mph N/A   Unknown
2:35 PM 74.8 °F 42.8 °F 32% 29.97 in 10.0 mi NW 10.4 mph 17.3 mph N/A   Unknown
2:55 PM 75.9 °F 41.4 °F 29% 29.97 in 10.0 mi WNW 11.5 mph 20.7 mph N/A   Unknown
3:15 PM 75.6 °F 37.6 °F 25% 29.97 in 10.0 mi NW 12.7 mph 18.4 mph N/A   Unknown
3:35 PM 75.4 °F 38.1 °F 26% 29.97 in 10.0 mi WNW 10.4 mph 16.1 mph N/A   Unknown
4:15 PM 73.9 °F 36.0 °F 25% 29.98 in 10.0 mi NW 8.1 mph 19.6 mph N/A   Unknown
4:35 PM 72.7 °F 34.2 °F 24% 29.99 in 10.0 mi WNW 10.4 mph 17.3 mph N/A   Unknown
4:55 PM 72.0 °F 32.5 °F 23% 29.99 in 10.0 mi WNW 11.5 mph 16.1 mph N/A   Unknown
5:35 PM 70.7 °F 35.1 °F 27% 29.99 in 10.0 mi WNW 6.9 mph - N/A   Unknown
5:55 PM 70.0 °F 36.5 °F 29% 30.00 in 10.0 mi WNW 5.8 mph - N/A   Unknown
6:15 PM 69.1 °F 37.9 °F 32% 30.00 in 10.0 mi West 3.5 mph - N/A   Unknown
6:35 PM 67.5 °F 39.2 °F 36% 30.00 in 10.0 mi West 3.5 mph - N/A   Unknown
6:55 PM 66.2 °F 40.1 °F 38% 30.01 in 10.0 mi West 4.6 mph - N/A   Unknown
7:15 PM 65.3 °F 40.3 °F 40% 30.02 in 10.0 mi West 5.8 mph - N/A   Unknown
7:35 PM 64.8 °F 40.5 °F 41% 30.03 in 10.0 mi West 4.6 mph - N/A   Unknown
7:55 PM 65.1 °F 38.8 °F 38% 30.04 in 10.0 mi WNW 4.6 mph - N/A   Unknown
8:15 PM 64.0 °F 37.8 °F 38% 30.04 in 10.0 mi West 4.6 mph - N/A   Unknown
8:35 PM 63.5 °F 37.4 °F 38% 30.05 in 10.0 mi WNW 5.8 mph - N/A   Unknown
8:55 PM 62.8 °F 37.0 °F 38% 30.05 in 10.0 mi West 5.8 mph - N/A   Unknown
9:15 PM 62.1 °F 36.9 °F 39% 30.06 in 10.0 mi West 4.6 mph - N/A   Unknown
9:35 PM 60.8 °F 37.4 °F 42% 30.06 in 10.0 mi WNW 4.6 mph - N/A   Unknown
9:55 PM 60.1 °F 37.2 °F 43% 30.07 in 10.0 mi WNW 4.6 mph - N/A   Unknown
10:15 PM 59.2 °F 37.0 °F 44% 30.07 in 10.0 mi West 6.9 mph - N/A   Unknown
10:35 PM 60.6 °F 34.5 °F 38% 30.08 in 10.0 mi WNW 6.9 mph - N/A   Unknown
10:55 PM 59.2 °F 35.2 °F 41% 30.09 in 10.0 mi West 6.9 mph - N/A   Unknown
11:15 PM 58.6 °F 35.4 °F 42% 30.09 in 10.0 mi West 6.9 mph - N/A   Unknown
11:35 PM 57.9 °F 35.6 °F 43% 30.10 in 10.0 mi WNW 5.8 mph - N/A   Unknown
11:55 PM 57.9 °F 34.7 °F 42% 30.10 in 10.0 mi WNW 6.9 mph - N/A   Unknown